Location: Unspecified
(58.7730°N, 5.8460°E)
Time: 13:24:24
(UTC+02:00)

CZ-3 Stage 3 - Visible Passes

Search period start: 23 August 2014 00:00
Search period end: 02 September 2014 00:00
Orbit: 413 x 34837 km, 30.7° (Epoch: 20 August)

Date Brightness Start Highest point End Pass type
(mag) Time Alt. Az. Time Alt. Az. Time Alt. Az.
24 Aug 8.3 07:33:55 10° S 08:35:56 17° S 08:51:29 10° SE visible
27 Aug 8.2 07:24:33 10° SSW 08:34:35 18° S 08:50:13 10° SE visible
30 Aug 8.2 07:15:12 10° SSW 08:33:07 19° S 08:48:44 10° SE visible
